Location: Peebles
(55.6412°N, 3.1714°W)
Time: 10:02:11
(UTC+01:00)

FENGYUN 1C DEB - Visible Passes

Search period start: 16 September 2024 00:00
Search period end: 26 September 2024 00:00
Orbit: 751 x 896 km, 98.7° (Epoch: 13 September)

Date Brightness Start Highest point End Pass type
(mag) Time Alt. Az. Time Alt. Az. Time Alt. Az.
16 Sep ? 20:03:37 10° ESE 20:07:36 24° NE 20:11:36 10° N visible
16 Sep ? 21:44:15 24° S 21:47:20 74° WSW 21:52:23 10° NNW visible
16 Sep ? 23:25:51 10° WSW 23:28:26 14° W 23:31:02 10° NW visible
17 Sep ? 21:24:17 23° SSE 21:27:27 81° ENE 21:32:31 10° NNW visible
17 Sep ? 23:05:43 14° SW 23:08:17 20° W 23:11:54 10° NW visible
18 Sep ? 21:04:18 20° SE 21:07:36 59° ENE 21:12:33 10° N visible
18 Sep ? 22:45:43 19° SW 22:48:09 27° W 22:52:25 10° NW visible
19 Sep ? 20:44:16 17° SE 20:47:46 43° ENE 20:52:31 10° N visible
19 Sep ? 22:25:42 24° SSW 22:28:02 37° W 22:32:43 10° NNW visible
20 Sep ? 20:24:12 13° ESE 20:27:57 32° ENE 20:32:25 10° N visible
20 Sep ? 22:05:38 29° SSW 22:07:56 52° W 22:12:54 10° NNW visible
21 Sep ? 20:04:10 10° ESE 20:08:09 25° NE 20:12:12 10° N visible
21 Sep ? 21:45:31 32° S 21:47:53 74° WSW 21:52:58 10° NNW visible
21 Sep ? 23:26:57 11° WSW 23:29:00 14° W 23:31:35 10° NW visible
22 Sep ? 19:44:55 10° E 19:48:23 19° NE 19:51:54 10° N visible
22 Sep ? 21:25:24 31° SSE 21:27:51 81° ENE 21:32:56 10° NNW visible
22 Sep ? 23:06:49 16° WSW 23:08:40 20° W 23:12:19 10° NW visible
23 Sep ? 21:05:14 27° SE 21:07:50 59° ENE 21:12:50 10° NNW visible
23 Sep ? 22:46:39 22° SW 22:48:22 27° W 22:52:40 10° NW visible
24 Sep ? 20:45:02 22° ESE 20:47:50 43° ENE 20:52:39 10° N visible
24 Sep ? 22:26:26 29° SW 22:28:06 38° W 22:32:50 10° NNW visible
25 Sep ? 20:24:48 17° ESE 20:27:53 32° ENE 20:32:22 10° N visible
25 Sep ? 22:06:13 37° SSW 22:07:51 53° W 22:12:51 10° NNW visible
